DELTA 1 DEB, 29186

Orbit data source: Space-Track

DELTA 1 DEB, 29186 is space debris in LEO originally from a launch on Thu, 11 Jan 1968 UTC launched from the Air Force Western Test Range (AFWTR). Debris objects in space refer to the collection of defunct objects orbiting the Earth. Examples of debris include non-operational satellites, rocket bodies, and fragments generated from explosions, collisions, or faulty payload assembly.

Loading next visibility...
Identifier
29186, 1968-002K
Orbit
LEO
Country
Flag of USUS
Related business
Manufacturer
Unknown
Mission
Spacecraft
Bus & Motor
Unknown
Mass
Unknown
Launch date (UTC)
1968-01-11 (58 years ago)
Launch vehicle
Unknown
Launch site
Air Force Western Test Range (AFWTR)
Object type
Payload
Rocket body
Debris
Shape & HBR
Unknown shape, 0.1 m
Radar Cross Section
Small (<0.1 m²)

Expand to show TLE details & history
Last TLE update: 1 day ago

TLE from 1 day ago
0 DELTA 1 DEB
1 29186U 68002K   26164.70817427  .00000023  00000-0  29727-3 0  9992
2 29186 105.8120 346.3448 0308482 164.7046 264.9663 12.93068743  3697
Epoch: 2026-06-13T16:59Z
TLE epoch observation values (Epoch: 2026-06-13T16:59:46.256Z)
Latitude
61.74987°
Longitude
157.75298°
Altitude
1,327.541 km
Speed
7.186 km/s
True Right ascension
20h 58m 51s
True Declination
61° 37' 01"
Sunlit
Object was in daylight at epoch
Visualization orbit readout
Latitude
Unknown
Longitude
Unknown
Altitude
Unknown
Speed
Unknown
Apparent Right ascension
Unknown
Apparent Declination
Unknown
Sunlit
N/A
Visualization observer readout
Local Sidereal Time
06:46:19
Azimuth
Unknown
Elevation
Unknown
Doppler factor
Unknown
Orbital elements
Apogee altitude
1,523.598 km
Perigee altitude
1,050.678 km
Semi-major axis
7,665.275 km
Eccentricity
0.03085
Inclination
105.812°
RAAN
346.3448°
Arg. of periapsis
164.7046°
True anomaly
261.45906°
Mean anomaly
264.9663°
Eccentric anomaly
263.21122°
Mean motion
3.23409 °/min
Orbital period
111.31 mins
BSTAR
0.00029727
Loading maneuver chart data...
Computing Atmospheric mass density...
Loading historical data...
Loading historical data...
Loading historical data...
Loading historical data...
Loading historical data...
Loading historical data...
Loading historical data...

Documentation

Showing up to 5 results
|